1487685600.68,59734,12.19,72320.5,-6.13,-7.19,-7.05,0,*55
1487685601.91,59735,12.19,72310.8,-6.13,-7.05,-7.11,0,*5C
1487685603.16,59736,12.19,72310.0,-6.13,-6.93,-6.93,0,*5A
1487685604.36,59737,12.19,72330.8,-6.13,-6.89,-6.77,0,*5A
1487685605.55,59738,12.19,72332.5,-6.13,-6.69,-6.69,0,*54
1487685606.76,59739,12.19,72334.0,-6.13,-6.77,-6.81,0,*5C
1487685607.96,59740,12.19,72334.0,-6.13,-6.77,-6.77,0,*5B
1487685609.21,59741,12.19,72336.3,-6.13,-6.63,-6.63,0,*5A
1487685610.44,59742,12.19,72338.3,-6.13,-6.51,-6.63,0,*58
1487685611.64,59743,12.19,72346.0,-6.13,-6.55,-6.51,0,*5C
1487685612.85,59744,12.19,72346.5,-6.13,-6.51,-6.51,0,*5F
1487685614.05,59745,12.19,72346.3,-6.13,-6.43,-6.51,0,*5D
1487685615.25,59746,12.19,72340.3,-6.13,-6.39,-6.39,0,*5D
1487685616.47,59747,12.19,72350.3,-6.11,-6.43,-6.43,0,*5E
1487685617.7,59748,12.19,72350.0,-6.11,-6.43,-6.51,0,*52
1487685618.93,59749,12.19,72350.8,-6.11,-6.51,-6.51,0,*50
1487685620.13,59750,12.19,72350.0,-6.09,-6.47,-6.47,0,*51
1487685621.36,59751,12.19,72336.3,-6.11,-6.55,-6.51,0,*5D
1487685622.58,59752,12.19,72334.3,-6.09,-6.63,-6.59,0,*5A
1487685623.78,59753,12.19,72332.8,-6.09,-6.59,-6.51,0,*5A
1487685624.98,59754,12.19,72344.5,-6.09,-6.47,-6.51,0,*52
1487685626.2,59755,12.19,72338.8,-6.11,-6.43,-6.51,0,*5E
1487685627.41,59756,12.19,72340.0,-6.09,-6.51,-6.47,0,*50
1487685628.63,59757,12.19,72338.8,-6.07,-6.47,-6.47,0,*58
1487685629.84,59758,12.19,72324.8,-6.09,-6.51,-6.51,0,*59
1487685631.03,59759,12.19,72306.8,-6.09,-6.47,-6.59,0,*57
1487685632.28,59760,12.19,72334.0,-6.07,-6.59,-6.63,0,*55
1487685633.51,59761,12.19,72334.5,-6.07,-6.59,-6.59,0,*5D
1487685634.74,59762,12.19,72344.3,-6.07,-6.59,-6.51,0,*56
1487685635.97,59763,12.19,72354.8,-6.07,-6.59,-6.59,0,*5F
1487685637.19,59764,12.19,72356.8,-6.07,-6.47,-6.51,0,*5F
1487685638.42,59765,12.19,72352.8,-6.07,-6.47,-6.59,0,*56
1487685639.67,59766,12.19,72354.8,-6.07,-6.51,-6.63,0,*5B
1487685640.86,59767,12.19,72360.5,-6.05,-6.59,-6.69,0,*5A
1487685642.11,59768,12.19,72372.3,-6.07,-6.63,-6.77,0,*51
1487685643.31,59769,12.19,72358.3,-6.05,-6.81,-6.85,0,*53
1487685644.53,59770,12.19,72342.0,-6.07,-6.89,-6.89,0,*5D
1487685645.73,59771,12.19,72348.0,-6.09,-6.85,-6.89,0,*5E
1487685646.95,59772,12.19,72352.0,-6.07,-6.85,-6.77,0,*52
1487685648.14,59773,12.19,72342.5,-6.05,-6.73,-6.85,0,*55
1487685649.37,59774,12.19,72352.5,-6.07,-6.73,-6.77,0,*5D
1487685650.56,59775,12.19,72356.5,-6.05,-6.73,-6.69,0,*51
1487685651.78,59776,12.19,72352.5,-6.07,-6.73,-6.77,0,*5F
1487685653.05,59777,12.19,72344.5,-6.07,-7.01,-7.01,0,*5A
1487685654.33,59778,12.19,72342.3,-6.07,-7.01,-7.01,0,*55
1487685655.6,59779,12.19,72350.5,-6.07,-6.93,-6.93,0,*54
1487685656.82,59780,12.19,72350.8,-6.07,-6.85,-6.85,0,*52
1487685658.05,59781,12.19,72344.3,-6.07,-6.85,-6.85,0,*53
1487685659.24,59782,12.19,72340.8,-6.05,-6.69,-6.73,0,*59
1487685660.47,59783,12.19,72344.8,-6.07,-6.59,-6.59,0,*51
1487685661.66,59784,12.19,72346.3,-6.05,-6.47,-6.47,0,*54
1487685662.86,59785,12.19,72334.8,-6.05,-6.47,-6.47,0,*55
1487685664.13,59786,12.19,72348.0,-6.07,-6.63,-6.63,0,*54
1487685665.33,59787,12.19,72352.8,-6.05,-6.55,-6.55,0,*57
1487685666.6,59788,12.19,72352.3,-6.07,-6.63,-6.63,0,*5A
1487685667.8,59789,12.19,72376.0,-6.05,-6.55,-6.59,0,*55
1487685668.99,59790,12.19,72362.8,-6.05,-6.69,-6.73,0,*5A
1487685670.18,59791,12.19,72368.0,-6.05,-6.73,-6.77,0,*54
1487685671.46,59792,12.19,72356.8,-6.07,-7.01,-7.01,0,*51
1487685672.71,59793,12.19,72346.5,-6.07,-7.19,-7.27,0,*5D
1487685673.98,59794,12.19,72350.5,-6.07,-7.39,-7.31,0,*5F
1487685675.25,59795,12.19,72348.3,-6.07,-7.39,-7.39,0,*56
1487685676.49,59796,12.19,72338.5,-6.07,-7.15,-7.05,0,*54
1487685677.76,59797,12.19,72336.0,-6.07,-7.27,-7.27,0,*54
1487685679.03,59798,12.19,72338.0,-6.07,-7.27,-7.39,0,*54
1487685680.27,59799,12.19,72344.3,-6.09,-7.01,-7.05,0,*50
1487685681.47,59800,12.19,72356.0,-6.09,-6.89,-6.89,0,*5B
1487685682.67,59801,12.19,72358.5,-6.09,-6.73,-6.73,0,*5A
1487685683.86,59802,12.19,72356.5,-6.09,-6.73,-6.59,0,*51
1487685685.08,59803,12.19,72358.3,-6.09,-6.63,-6.59,0,*51
1487685686.31,59804,12.19,72356.8,-6.09,-6.59,-6.63,0,*56
1487685687.54,59805,12.19,72362.8,-6.09,-6.51,-6.63,0,*5F
1487685688.76,59806,12.19,72362.5,-6.07,-6.59,-6.59,0,*53
1487685689.99,59807,12.19,72360.3,-6.07,-6.59,-6.47,0,*5D
1487685691.21,59808,12.19,72348.0,-6.07,-6.73,-6.73,0,*5D
1487685692.41,59809,12.19,72352.3,-6.05,-6.55,-6.55,0,*5E
1487685693.64,59810,12.19,72360.3,-6.07,-6.47,-6.51,0,*53
1487685694.86,59811,12.19,72372.3,-6.07,-6.59,-6.59,0,*55
1487685696.06,59812,12.19,72362.5,-6.05,-6.47,-6.55,0,*57
1487685697.31,59813,12.19,72354.3,-6.07,-6.89,-6.93,0,*5C
1487685698.53,59814,12.19,72356.8,-6.07,-6.77,-6.73,0,*54
1487685699.73,59815,12.19,72348.5,-6.05,-6.59,-6.59,0,*53
1487685700.97,59816,12.19,72358.3,-6.07,-6.51,-6.51,0,*52
1487685702.17,59817,12.19,72360.8,-6.05,-6.31,-6.31,0,*51
1487685703.37,59818,12.19,72360.5,-6.01,-6.31,-6.31,0,*5A
1487685704.61,59819,12.19,72358.5,-6.01,-6.27,-6.27,0,*5B
1487685705.83,59820,12.19,72358.8,-6.01,-6.31,-6.19,0,*5B
1487685707.05,59821,12.19,72344.0,-6.01,-6.31,-6.27,0,*57
1487685708.25,59822,12.19,72350.0,-6.01,-6.31,-6.31,0,*53
1487685709.44,59823,12.19,72350.3,-6.01,-6.43,-6.43,0,*52
1487685710.64,59824,12.19,72350.3,-6.01,-6.31,-6.31,0,*55
1487685711.91,59825,12.19,72336.8,-5.99,-6.27,-6.27,0,*56
1487685713.13,59826,12.19,72328.5,-6.01,-6.27,-6.31,0,*50
1487685714.35,59827,12.19,72332.8,-5.99,-6.31,-6.31,0,*54
1487685715.57,59828,12.19,72332.3,-5.99,-6.31,-6.31,0,*5B
1487685716.84,59829,12.19,72342.0,-5.99,-6.27,-6.27,0,*5A
1487685718.11,59830,12.19,72342.3,-5.99,-6.19,-6.27,0,*5F
1487685719.3,59831,12.19,72348.3,-5.97,-6.09,-6.13,0,*56
1487685720.49,59832,12.19,72356.0,-5.97,-6.13,-6.13,0,*5E
1487685721.71,59833,12.19,72340.0,-5.95,-6.27,-6.39,0,*52
1487685722.91,59834,12.19,72332.3,-5.97,-6.35,-6.35,0,*58
1487685724.11,59835,12.19,72328.5,-5.97,-6.35,-6.35,0,*59
1487685725.31,59836,12.19,72302.8,-5.95,-6.39,-6.39,0,*58
1487685726.5,59837,12.19,72286.0,-5.97,-6.47,-6.39,0,*52
1487685727.71,59838,12.19,72292.3,-5.95,-6.51,-6.51,0,*56
1487685728.95,59839,12.19,72318.3,-5.97,-6.63,-6.63,0,*55
1487685730.17,59840,12.19,72326.0,-5.97,-6.59,-6.63,0,*52
1487685731.36,59841,12.19,72342.5,-5.97,-6.59,-6.59,0,*5A
1487685732.56,59842,12.19,72338.3,-5.97,-6.47,-6.35,0,*5C
1487685733.77,59843,12.19,72330.0,-5.95,-6.51,-6.51,0,*5A
1487685734.98,59844,12.19,72342.5,-5.95,-6.51,-6.51,0,*5D
1487685736.19,59845,12.19,72360.5,-5.95,-6.51,-6.51,0,*5C
1487685737.39,59846,12.19,72364.0,-5.97,-6.51,-6.47,0,*5A
1487685738.6,59847,12.19,72354.5,-5.97,-6.63,-6.77,0,*59
1487685739.8,59848,12.19,72354.5,-5.97,-6.77,-6.81,0,*5A
1487685740.99,59849,12.19,72336.0,-5.97,-6.73,-6.73,0,*52
1487685742.19,59850,12.19,72330.8,-5.97,-6.59,-6.59,0,*5A
1487685743.39,59851,12.19,72356.0,-5.97,-6.51,-6.51,0,*5B
1487685744.59,59852,12.19,72362.3,-5.97,-6.51,-6.51,0,*58
1487685745.79,59853,12.19,72362.8,-5.97,-6.51,-6.51,0,*59
1487685746.99,59854,12.19,72360.0,-5.97,-6.51,-6.47,0,*59
1487685748.19,59855,12.19,72360.0,-5.95,-6.47,-6.35,0,*58
1487685749.44,59856,12.19,72372.8,-5.95,-6.27,-6.23,0,*5A
1487685750.68,59857,12.19,72376.8,-5.95,-6.27,-6.23,0,*5B
1487685751.92,59858,12.19,72374.0,-5.97,-6.23,-6.23,0,*52
1487685753.12,59859,12.19,72366.3,-5.95,-6.13,-6.13,0,*51
1487685754.34,59860,12.19,72370.3,-5.97,-6.13,-6.23,0,*5A
1487685755.56,59861,12.19,72380.8,-5.95,-6.23,-6.13,0,*59
1487685756.78,59862,12.19,72382.8,-5.95,-6.27,-6.13,0,*5E
1487685758.03,59863,12.19,72372.3,-5.95,-6.23,-6.27,0,*5C
1487685759.26,59864,12.19,72370.5,-5.95,-6.13,-6.23,0,*5C
1487685760.5,59865,12.19,72364.8,-5.95,-6.23,-6.23,0,*5E
1487685761.7,59866,12.19,72362.8,-5.95,-6.09,-6.13,0,*56
1487685762.93,59867,12.19,72356.5,-5.93,-6.13,-6.13,0,*5A
1487685764.18,59868,12.19,72366.0,-5.93,-6.09,-6.23,0,*5D
1487685765.4,59869,12.19,72370.0,-5.93,-6.13,-6.09,0,*5F
1487685766.63,59870,12.19,72368.5,-5.93,-6.13,-6.13,0,*5C
1487685767.85,59871,12.19,72366.5,-5.93,-6.13,-6.13,0,*5D
1487685769.08,59872,12.19,72364.0,-5.91,-6.09,-6.19,0,*5D
1487685770.28,59873,12.19,72368.0,-5.91,-6.09,-6.09,0,*5D
1487685771.53,59874,12.19,72368.0,-5.91,-6.19,-6.19,0,*5A
1487685772.78,59875,12.19,72358.5,-5.91,-6.23,-6.23,0,*5B
1487685774.02,59876,12.19,72358.3,-5.91,-6.23,-6.23,0,*58
1487685775.27,59877,12.19,72366.3,-5.91,-6.19,-6.19,0,*59
1487685776.47,59878,12.19,72372.3,-5.91,-6.09,-6.09,0,*56
1487685777.67,59879,12.19,72368.0,-5.91,-6.05,-6.05,0,*57
1487685778.86,59880,12.19,72368.8,-5.91,-6.05,-6.05,0,*51
1487685780.08,59881,12.19,72368.0,-5.89,-6.01,-6.01,0,*59
1487685781.3,59882,12.19,72366.0,-5.89,-6.01,-6.01,0,*5A
1487685782.52,59883,12.19,72370.8,-5.89,-6.01,-6.01,0,*5B
1487685783.74,59884,12.19,72376.3,-5.89,-6.01,-6.01,0,*5C
1487685784.96,59885,12.19,72382.5,-5.89,-6.05,-6.05,0,*5D
1487685786.18,59886,12.19,72380.0,-5.89,-6.01,-6.01,0,*5E
1487685787.39,59887,12.19,72380.0,-5.89,-6.05,-6.13,0,*58
1487685788.61,59888,12.19,72380.3,-5.89,-6.13,-6.13,0,*50
1487685789.88,59889,12.19,72372.0,-5.89,-6.27,-6.19,0,*5C
1487685791.13,59890,12.19,72374.3,-5.89,-6.27,-6.31,0,*5E
1487685792.36,59891,12.19,72376.3,-5.87,-6.27,-6.31,0,*51
1487685793.56,59892,12.19,72388.3,-5.87,-6.31,-6.43,0,*50
1487685794.76,59893,12.19,72394.5,-5.87,-6.31,-6.43,0,*51
1487685796.01,59894,12.19,72382.8,-5.89,-6.55,-6.63,0,*58
1487685797.22,59895,12.19,72384.8,-5.89,-6.69,-6.69,0,*5C
1487685798.45,59896,12.19,72380.0,-5.89,-6.81,-6.81,0,*5F
1487685799.68,59897,12.19,72382.5,-5.91,-7.01,-7.15,0,*52
1487685800.87,59898,12.19,72378.0,-5.91,-7.49,-7.49,0,*58
1487685802.07,59899,12.19,72374.0,-5.91,-7.53,-7.53,0,*59
1487685803.31,59900,12.19,72378.5,-5.93,-7.43,-7.53,0,*5B
1487685804.56,59901,12.19,72374.5,-5.93,-7.31,-7.19,0,*51
1487685805.82,59902,12.19,72364.5,-5.93,-7.19,-7.27,0,*55
1487685807.09,59903,12.19,72362.5,-5.93,-7.05,-7.05,0,*59
1487685808.34,59904,12.19,72352.5,-5.95,-6.93,-6.93,0,*58
1487685809.59,59905,12.19,72348.3,-5.97,-6.93,-7.01,0,*51
1487685810.84,59906,12.19,72348.3,-5.95,-6.93,-7.01,0,*50
1487685812.07,59907,12.19,72350.0,-5.95,-7.05,-7.15,0,*5A
1487685813.27,59908,12.19,72350.0,-5.95,-6.89,-6.89,0,*54
1487685814.47,59909,12.19,72362.0,-5.97,-6.81,-6.81,0,*57
1487685815.67,59910,12.19,72370.3,-5.95,-6.73,-6.77,0,*59
1487685816.88,59911,12.19,72368.8,-5.95,-6.77,-6.81,0,*55
1487685818.09,59912,12.19,72372.8,-5.95,-6.81,-6.89,0,*57
1487685819.33,59913,12.19,72374.3,-5.97,-6.93,-7.01,0,*56
1487685820.57,59914,12.19,72364.0,-5.97,-6.93,-7.05,0,*55
1487685821.82,59915,12.19,72368.0,-5.97,-6.93,-6.93,0,*5A
1487685823.03,59916,12.19,72366.8,-5.95,-6.81,-6.81,0,*5B
1487685824.25,59917,12.19,72364.0,-5.97,-6.73,-6.63,0,*59
1487685825.45,59918,12.19,72362.3,-5.97,-6.51,-6.59,0,*5F
1487685826.65,59919,12.19,72356.5,-5.97,-6.51,-6.51,0,*56
1487685827.85,59920,12.19,72356.3,-5.97,-6.51,-6.59,0,*54
1487685829.04,59921,12.19,72360.3,-5.97,-6.47,-6.39,0,*54
1487685830.27,59922,12.19,72360.0,-5.95,-6.35,-6.27,0,*5F
1487685831.48,59923,12.19,72360.0,-5.97,-6.27,-6.35,0,*5C
1487685832.71,59924,12.19,72354.0,-5.95,-6.27,-6.39,0,*55
1487685833.92,59925,12.19,72352.3,-5.97,-6.27,-6.35,0,*5A
1487685835.17,59926,12.19,72348.8,-5.95,-6.27,-6.27,0,*58
1487685836.42,59927,12.19,72346.5,-5.95,-6.27,-6.27,0,*59
1487685837.66,59928,12.19,72350.8,-5.95,-6.27,-6.23,0,*52
1487685838.87,59929,12.19,72352.3,-5.95,-6.35,-6.35,0,*57
1487685840.12,59930,12.19,72360.3,-5.95,-6.27,-6.23,0,*5B
1487685841.36,59931,12.19,72358.3,-5.95,-6.27,-6.23,0,*5A
1487685842.57,59932,12.19,72364.5,-5.95,-6.51,-6.51,0,*5D
1487685843.8,59933,12.19,72360.5,-5.95,-6.51,-6.63,0,*5D
1487685845.01,59934,12.19,72360.5,-5.95,-6.77,-6.73,0,*5F
1487685846.21,59935,12.19,72362.8,-5.95,-6.73,-6.77,0,*5E
1487685847.43,59936,12.19,72370.5,-5.95,-6.63,-6.51,0,*58
1487685848.63,59937,12.19,72368.0,-5.95,-6.47,-6.39,0,*51
1487685849.86,59938,12.19,72366.0,-5.93,-6.35,-6.35,0,*51
1487685851.11,59939,12.19,72366.0,-5.93,-6.27,-6.35,0,*53
1487685852.36,59940,12.19,72366.8,-5.93,-6.23,-6.35,0,*59
1487685853.63,59941,12.19,72366.5,-5.93,-6.23,-6.23,0,*5F
1487685854.86,59942,12.19,72370.3,-5.93,-6.35,-6.35,0,*5C
1487685856.13,59943,12.19,72366.8,-5.89,-6.27,-6.19,0,*5B
1487685857.36,59944,12.19,72370.0,-5.91,-6.19,-6.09,0,*59
1487685858.56,59945,12.19,72374.5,-5.91,-6.09,-6.09,0,*59
1487685859.78,59946,12.19,72372.0,-5.93,-6.01,-6.09,0,*50
1487685860.97,59947,12.19,72374.8,-5.91,-6.05,-6.09,0,*57
1487685862.17,59948,12.19,72368.3,-5.91,-5.97,-6.05,0,*5C
1487685863.39,59949,12.19,72374.3,-5.91,-5.93,-6.05,0,*59
1487685864.62,59950,12.19,72374.0,-5.93,-6.01,-6.01,0,*5F
1487685865.81,59951,12.19,72370.5,-5.91,-5.97,-6.05,0,*54
1487685867.01,59952,12.19,72372.0,-5.91,-6.05,-6.09,0,*53
1487685868.21,59953,12.19,72376.5,-5.91,-6.09,-6.09,0,*5E
1487685869.43,59954,12.19,72370.3,-5.91,-6.09,-6.23,0,*51
1487685870.68,59955,12.19,72368.5,-5.89,-6.19,-6.31,0,*5B
1487685871.9,59956,12.19,72342.0,-5.89,-6.69,-6.85,0,*50
1487685873.15,59957,12.19,72350.0,-5.89,-6.93,-7.19,0,*50
1487685874.43,59958,12.19,72348.8,-5.89,-6.93,-7.43,0,*50
1487685875.68,59959,12.19,72334.8,-5.91,-7.39,-8.07,0,*56
1487685876.87,59960,12.19,72340.8,-5.91,-7.83,-8.59,0,*56
1487685878.12,59961,12.19,72334.0,-5.93,-7.99,-8.63,0,*57
1487685879.36,59962,12.19,72330.5,-5.93,-8.07,-8.55,0,*59
1487685880.61,59963,12.19,72320.5,-5.93,-7.99,-8.63,0,*55
1487685881.85,59964,12.19,72332.3,-5.93,-7.99,-8.63,0,*52
1487685883.05,59965,12.19,72338.5,-5.97,-8.37,-9.01,0,*59
1487685884.26,59966,12.19,72330.3,-5.97,-8.67,-9.15,0,*5A
1487685885.46,59967,12.19,72326.5,-5.97,-8.67,-9.05,0,*5A
1487685886.71,59968,12.19,72330.3,-5.99,-8.51,-8.85,0,*57
1487685887.97,59969,12.19,72328.3,-5.99,-8.11,-8.51,0,*5B
1487685889.19,59970,12.19,72332.3,-6.01,-7.91,-8.37,0,*56
1487685890.41,59971,12.19,72330.0,-6.01,-7.99,-8.59,0,*57
1487685891.63,59972,12.19,72328.8,-6.07,-8.25,-8.89,0,*57
1487685892.85,59973,12.19,72322.5,-6.05,-8.03,-8.59,0,*5D
1487685894.09,59974,12.19,72322.3,-6.07,-7.95,-8.59,0,*58
1487685895.3,59975,12.19,72324.0,-6.05,-7.77,-8.25,0,*5C
1487685896.52,59976,12.19,72318.3,-6.07,-7.83,-8.33,0,*51
1487685897.75,59977,12.19,72312.3,-6.07,-7.83,-8.21,0,*53
1487685898.97,59978,12.19,72316.0,-6.09,-7.87,-8.07,0,*52
1487685900.2,59979,12.19,72326.8,-6.09,-7.87,-7.99,0,*5B
1487685901.42,59980,12.19,72312.0,-6.09,-7.69,-7.87,0,*52
1487685902.67,59981,12.19,72326.3,-6.11,-7.61,-7.87,0,*52
1487685903.92,59982,12.19,72332.5,-6.09,-7.57,-7.69,0,*5D
1487685905.15,59983,12.19,72336.0,-6.09,-7.53,-7.65,0,*54
1487685906.42,59984,12.19,72344.5,-6.11,-7.69,-7.73,0,*54
1487685907.7,59985,12.19,72346.3,-6.11,-7.35,-7.61,0,*5F
1487685908.95,59986,12.19,72352.5,-6.11,-7.23,-7.57,0,*5E
1487685910.19,59987,12.19,72356.0,-6.09,-7.39,-7.65,0,*5C
1487685911.46,59988,12.19,72360.0,-6.11,-7.35,-7.69,0,*5A
1487685912.74,59989,12.19,72366.5,-6.11,-7.31,-7.61,0,*57
1487685913.98,59990,12.19,72360.3,-6.11,-7.49,-7.69,0,*58
1487685915.25,59991,12.19,72360.3,-6.11,-7.35,-7.69,0,*52
1487685916.5,59992,12.19,72358.0,-6.09,-7.43,-7.65,0,*55
1487685917.75,59993,12.19,72352.8,-6.11,-7.49,-7.57,0,*56
1487685918.98,59994,12.19,72350.0,-6.09,-7.69,-7.83,0,*53
1487685920.22,59995,12.19,72346.3,-6.11,-7.83,-7.91,0,*5C
1487685921.47,59996,12.19,72352.3,-6.09,-7.43,-7.57,0,*50
1487685922.75,59997,12.19,72340.3,-6.11,-7.35,-7.35,0,*5D
1487685924.0,59998,12.19,72338.8,-6.11,-7.31,-7.23,0,*51
1487685925.25,59999,12.19,72338.3,-6.11,-7.23,-7.31,0,*50
1487685926.5,60000,12.19,72338.3,-6.11,-7.05,-7.11,0,*55
1487685927.75,60001,12.19,72342.8,-6.09,-6.97,-7.01,0,*56
1487685929.03,60002,12.19,72336.8,-6.11,-6.93,-6.93,0,*52
1487685930.28,60003,12.19,72342.5,-6.11,-6.89,-6.93,0,*58
1487685931.55,60004,12.19,72342.3,-6.11,-6.93,-6.93,0,*54
1487685932.77,60005,12.19,72344.8,-6.09,-6.85,-6.93,0,*5B
1487685933.99,60006,12.19,72354.8,-6.09,-6.85,-6.93,0,*58
1487685935.22,60007,12.19,72352.0,-6.09,-6.85,-6.93,0,*59
1487685936.49,60008,12.19,72356.3,-6.11,-6.93,-7.05,0,*56
1487685937.74,60009,12.19,72344.3,-6.11,-6.93,-7.15,0,*56
1487685938.98,60010,12.19,72356.8,-6.09,-6.93,-7.05,0,*56
1487685940.26,60011,12.19,72356.3,-6.11,-7.05,-7.31,0,*57
1487685941.48,60012,12.19,72354.5,-6.09,-7.15,-7.39,0,*54
1487685942.68,60013,12.19,72358.8,-6.09,-7.15,-7.53,0,*59
1487685943.94,60014,12.19,72352.0,-6.11,-7.31,-7.69,0,*58
1487685945.17,60015,12.19,72352.0,-6.09,-7.57,-7.87,0,*50
1487685946.42,60016,12.19,72338.5,-6.09,-7.65,-7.95,0,*51
1487685947.69,60017,12.19,72330.5,-6.11,-7.69,-7.91,0,*51
1487685948.93,60018,12.19,72334.3,-6.11,-7.91,-8.41,0,*5B
1487685950.19,60019,12.19,72320.5,-6.11,-7.73,-8.41,0,*56
1487685951.43,60020,12.19,72334.5,-6.11,-7.49,-7.99,0,*5F
1487685952.68,60021,12.19,72346.8,-6.11,-7.43,-7.87,0,*5B
1487685953.91,60022,12.19,72320.5,-6.13,-7.43,-7.87,0,*5A
1487685955.16,60023,12.19,72322.5,-6.13,-7.43,-7.91,0,*5C
1487685956.39,60024,12.19,72322.5,-6.13,-7.31,-7.83,0,*5D
1487685957.64,60025,12.19,72318.0,-6.13,-7.31,-7.73,0,*53
1487685958.87,60026,12.19,72312.8,-6.13,-7.19,-7.43,0,*59
1487685960.08,60027,12.19,72336.5,-6.13,-7.11,-7.23,0,*56
1487685961.31,60028,12.19,72336.5,-6.13,-6.97,-7.11,0,*57
1487685962.56,60029,12.19,72328.5,-6.13,-6.93,-6.97,0,*5D
1487685963.79,60030,12.19,72328.0,-6.13,-6.89,-6.93,0,*5A
1487685964.99,60031,12.19,72338.0,-6.13,-6.81,-6.89,0,*58
1487685966.23,60032,12.19,72340.0,-6.13,-7.05,-7.05,0,*53
1487685967.46,60033,12.19,72338.5,-6.11,-7.19,-7.19,0,*50
1487685968.69,60034,12.19,72334.5,-6.11,-7.23,-7.23,0,*57
1487685969.92,60035,12.19,72334.3,-6.11,-7.23,-7.23,0,*56
1487685971.14,60036,12.19,72336.8,-6.09,-7.05,-7.15,0,*5D
1487685972.4,60037,12.19,72340.0,-6.11,-6.97,-7.11,0,*5B
1487685973.63,60038,12.19,72342.0,-6.13,-6.97,-7.11,0,*56
1487685974.9,60039,12.19,72342.0,-6.11,-7.05,-7.05,0,*5A
1487685976.15,60040,12.19,72338.8,-6.11,-6.97,-7.19,0,*53
1487685977.4,60041,12.19,72344.8,-6.09,-6.93,-7.01,0,*56
1487685978.68,60042,12.19,72360.3,-6.11,-6.97,-6.93,0,*52
1487685979.93,60043,12.19,72368.5,-6.11,-7.05,-7.11,0,*52
1487685981.18,60044,12.19,72340.8,-6.11,-7.35,-7.49,0,*5B
1487685982.46,60045,12.19,72362.5,-6.11,-7.73,-7.91,0,*5D
1487685983.7,60046,12.19,72358.5,-6.11,-7.91,-8.17,0,*53
1487685984.95,60047,12.19,72374.8,-6.11,-7.99,-8.25,0,*5B
1487685986.2,60048,12.19,72376.8,-6.13,-7.73,-8.03,0,*56
1487685987.45,60049,12.19,72378.3,-6.13,-7.73,-7.91,0,*53
1487685988.68,60050,12.19,72392.0,-6.13,-7.57,-7.83,0,*5E
1487685989.92,60051,12.19,72388.8,-6.13,-7.57,-7.83,0,*5F
1487685991.14,60052,12.19,72370.3,-6.13,-7.83,-8.11,0,*51
1487685992.38,60053,12.19,72364.0,-6.13,-7.91,-8.03,0,*50
1487685993.63,60054,12.19,72356.3,-6.13,-7.91,-7.99,0,*5B
1487685994.88,60055,12.19,72356.5,-6.17,-7.95,-7.91,0,*52
1487685996.12,60056,12.19,72358.0,-6.17,-7.95,-7.95,0,*55
1487685997.36,60057,12.19,72352.3,-6.17,-7.91,-7.91,0,*54
1487685998.61,60058,12.19,72356.0,-6.19,-7.91,-7.83,0,*56
1487685999.88,60059,12.19,72348.5,-6.19,-7.91,-7.95,0,*50
1487686001.1,60060,12.19,72340.8,-6.17,-7.87,-7.95,0,*53
1487686002.37,60061,12.19,72342.0,-6.19,-7.91,-7.95,0,*5B
1487686003.6,60062,12.19,72350.3,-6.21,-7.83,-7.91,0,*54
1487686004.84,60063,12.19,72342.0,-6.21,-7.91,-7.91,0,*56
1487686006.06,60064,12.19,72358.5,-6.21,-7.83,-7.91,0,*52
1487686007.26,60065,12.19,72362.5,-6.21,-7.83,-7.83,0,*50
1487686008.55,60066,12.19,72368.8,-6.23,-7.57,-7.61,0,*54
1487686009.79,60067,12.19,72366.3,-6.21,-7.31,-7.39,0,*5A
1487686011.04,60068,12.19,72368.8,-6.21,-7.31,-7.39,0,*55
1487686012.26,60069,12.19,72368.5,-6.23,-7.23,-7.23,0,*5E
1487686013.46,60070,12.19,72368.8,-6.21,-7.15,-7.15,0,*54
1487686014.69,60071,12.19,72374.5,-6.21,-7.27,-7.19,0,*58
1487686015.91,60072,12.19,72376.8,-6.21,-7.15,-7.27,0,*57
1487686017.14,60073,12.19,72374.8,-6.21,-7.19,-7.27,0,*5A
1487686018.39,60074,12.19,72376.3,-6.23,-7.31,-7.23,0,*51
1487686019.61,60075,12.19,72388.0,-6.21,-7.15,-7.27,0,*50
1487686020.85,60076,12.19,72392.3,-6.23,-7.11,-7.11,0,*50
1487686022.09,60077,12.19,72390.8,-6.21,-7.05,-7.05,0,*53
1487686023.34,60078,12.19,72386.3,-6.21,-6.97,-7.01,0,*52
1487686024.53,60079,12.19,72384.5,-6.21,-6.89,-6.89,0,*5D
1487686025.73,60080,12.19,72382.3,-6.21,-6.89,-6.85,0,*57
1487686026.95,60081,12.19,72346.3,-6.21,-7.05,-7.15,0,*5B
1487686028.2,60082,12.19,72328.0,-6.19,-7.53,-7.39,0,*5E
1487686029.43,60083,12.19,72364.3,-6.19,-7.53,-7.53,0,*53
1487686030.65,60084,12.19,72352.0,-6.21,-7.53,-7.57,0,*5B
1487686031.9,60085,12.19,72350.3,-6.21,-7.65,-7.57,0,*5F
1487686033.09,60086,12.19,72370.8,-6.21,-7.53,-7.53,0,*5D
1487686034.31,60087,12.19,72380.0,-6.23,-7.49,-7.49,0,*5E
1487686035.58,60088,12.19,72368.0,-6.23,-7.61,-7.69,0,*59
1487686036.87,60089,12.19,72366.0,-6.23,-7.73,-7.73,0,*50
1487686038.09,60090,12.19,72360.8,-6.23,-7.83,-7.83,0,*58
1487686039.32,60091,12.19,72350.5,-6.23,-7.83,-7.83,0,*59
1487686040.53,60092,12.19,72356.3,-6.25,-7.83,-7.83,0,*5C
1487686041.77,60093,12.19,72344.3,-6.25,-7.95,-7.95,0,*5D
1487686043.04,60094,12.19,72354.5,-6.29,-7.99,-7.91,0,*5E
1487686044.28,60095,12.19,72340.8,-6.29,-7.87,-7.91,0,*50
1487686045.52,60096,12.19,72346.0,-6.29,-7.87,-7.77,0,*5B
1487686046.79,60097,12.19,72346.3,-6.29,-7.77,-7.77,0,*55
1487686048.03,60098,12.19,72338.0,-6.29,-7.87,-7.77,0,*55
1487686049.31,60099,12.19,72348.0,-6.29,-7.73,-7.73,0,*5B
1487686050.58,60100,12.19,72348.8,-6.29,-7.65,-7.61,0,*5E
1487686051.85,60101,12.19,72348.0,-6.29,-7.61,-7.61,0,*5B
1487686053.12,60102,12.19,72352.5,-6.29,-7.65,-7.61,0,*5C
1487686054.36,60103,12.19,72352.8,-6.29,-7.49,-7.35,0,*52
1487686055.56,60104,12.19,72356.3,-6.31,-7.23,-7.15,0,*52
1487686056.76,60105,12.19,72362.0,-6.31,-7.23,-7.15,0,*53
1487686058.0,60106,12.19,72360.0,-6.29,-7.27,-7.23,0,*58
1487686059.24,60107,12.19,72358.0,-6.29,-7.27,-7.23,0,*59
1487686060.45,60108,12.19,72360.0,-6.25,-7.11,-7.11,0,*5E
1487686061.69,60109,12.19,72362.5,-6.29,-7.11,-7.05,0,*56
1487686062.92,60110,12.19,72360.3,-6.29,-7.11,-7.11,0,*5B
1487686064.19,60111,12.19,72360.5,-6.29,-7.35,-7.39,0,*56
1487686065.45,60112,12.19,72362.5,-6.29,-7.27,-7.27,0,*59
1487686066.69,60113,12.19,72360.5,-6.31,-7.39,-7.35,0,*5D
1487686067.95,60114,12.19,72360.3,-6.29,-7.27,-7.27,0,*5F
1487686069.22,60115,12.19,72362.8,-6.29,-7.27,-7.35,0,*5D
1487686070.46,60116,12.19,72368.0,-6.29,-7.35,-7.49,0,*56
1487686071.7,60117,12.19,72358.8,-6.29,-7.39,-7.49,0,*5B
1487686072.93,60118,12.19,72358.5,-6.31,-7.39,-7.39,0,*5A
1487686074.15,60119,12.19,72350.8,-6.31,-7.23,-7.27,0,*5F
1487686075.42,60120,12.19,72348.3,-6.33,-7.27,-7.27,0,*53
1487686076.62,60121,12.19,72352.8,-6.31,-7.15,-7.15,0,*50
1487686077.82,60122,12.19,72362.5,-6.31,-7.15,-7.15,0,*53
1487686079.02,60123,12.19,72360.8,-6.31,-7.11,-7.15,0,*56
1487686080.22,60124,12.19,72354.0,-6.31,-7.11,-7.11,0,*55
1487686081.41,60125,12.19,72364.5,-6.31,-7.15,-7.15,0,*54
1487686082.61,60126,12.19,72368.3,-6.31,-7.15,-7.15,0,*57
1487686083.81,60127,12.19,72360.8,-6.31,-7.15,-7.15,0,*56
1487686085.0,60128,12.19,72360.3,-6.31,-7.15,-7.15,0,*59
1487686086.22,60129,12.19,72368.8,-6.29,-7.15,-7.15,0,*51
1487686087.45,60130,12.19,72368.3,-6.29,-7.15,-7.23,0,*5C
1487686088.69,60131,12.19,72372.3,-6.29,-7.23,-7.27,0,*5C
1487686089.96,60132,12.19,72360.8,-6.29,-7.35,-7.27,0,*58
1487686091.19,60133,12.19,72358.3,-6.29,-7.39,-7.49,0,*5D
1487686092.45,60134,12.19,72358.8,-6.29,-7.39,-7.39,0,*5D
1487686093.67,60135,12.19,72352.3,-6.33,-7.53,-7.53,0,*57
1487686094.86,60136,12.19,72352.8,-6.31,-7.53,-7.49,0,*5D
1487686096.11,60137,12.19,72356.5,-6.31,-7.61,-7.61,0,*57
1487686097.3,60138,12.19,72354.0,-6.31,-7.53,-7.53,0,*58
1487686098.52,60139,12.19,72352.3,-6.31,-7.53,-7.61,0,*58
1487686099.77,60140,12.19,72340.5,-6.31,-7.65,-7.65,0,*57
1487686100.98,60141,12.19,72336.0,-6.31,-7.53,-7.65,0,*53
1487686102.26,60142,12.19,72334.3,-6.33,-7.65,-7.65,0,*57
1487686103.53,60143,12.19,72340.8,-6.33,-7.65,-7.69,0,*5A
1487686104.79,60144,12.19,72344.8,-6.33,-7.77,-7.91,0,*59
1487686106.04,60145,12.19,72346.5,-6.33,-7.83,-7.91,0,*53
1487686107.31,60146,12.19,72344.3,-6.33,-7.91,-7.91,0,*53
1487686108.55,60147,12.19,72334.5,-6.35,-7.91,-7.91,0,*54